AirNav   Air Wisconsin pilot careers
 
 981 users online  

89D Kelleys Island Land Field Airport
Kelleys Island, Ohio, USA

GOING TO KELLEYS ISLAND?


FAA INFORMATION EFFECTIVE 16 AUGUST 2018

Location

FAA Identifier: 89D
Lat/Long: 41-36-11.4550N / 082-41-06.1950W
41-36.190917N / 082-41.103250W
41.6031819 / -82.6850542
(estimated)
Elevation: 598 ft. / 182.3 m (surveyed)
Variation: 07W (2000)
From city: 1 mile NE of KELLEYS ISLAND, OH
Time zone: UTC -4 (UTC -5 during Standard Time)
Zip code: 43438

Airport Operations

Airport use: Open to the public
Activation date: 05/1949
Control tower: no
ARTCC: CLEVELAND CENTER
FSS: CLEVELAND FLIGHT SERVICE STATION
NOTAMs facility: CLE (NOTAM-D service available)
Attendance: UNATNDD
Wind indicator: lighted
Segmented circle: no
Lights: SS-SR
Landing fee: yes

Airport Communications

CTAF: 122.9
WX AWOS-3 at PCW (10 nm SW): 118.775 (419-734-9955)

Nearby radio navigation aids

VOR radial/distance  VOR name  Freq  Var
DJBr307/27.7DRYER VOR/DME113.6005W
YQGr177/39.3WINDSOR VOR/DME113.8006W

 
NDB name  Hdg/Dist  Freq  Var  ID
PORT CLINTON065/9.742307WPCW .--. -.-. .--
GROSSE ILE152/36.541907WRYS .-. -.-- ...
TIFFIN043/38.726905WTII - .. ..

Airport Services

Parking: tiedowns
Airframe service: NONE
Powerplant service: NONE
Bottled oxygen: NONE
Bulk oxygen: NONE

Runway Information

Runway 9/27

Dimensions: 2203 x 50 ft. / 671 x 15 m
Surface: asphalt, in fair condition
Runway edge lights: low intensity
Runway edge markings: RY 09/27 NSTD MARKINGS; PAINT ROLLER SIZE AND DONE BY HAND. MARKINGS FADED.
RUNWAY 9  RUNWAY 27
Latitude: 41-36.198333N41-36.183500N
Longitude: 082-41.344500W082-40.862000W
Elevation: 598.0 ft.597.0 ft.
Gradient: 0.3%0.3%
Traffic pattern: leftleft
Runway heading: 099 magnetic, 092 true279 magnetic, 272 true
Markings: NSTD, in fair conditionNSTD, in fair condition
Runway end identifier lights: nono
Touchdown point: yes, no lightsyes, no lights
Obstructions: 44 ft. trees, 400 ft. from runway, 140 ft. right of centerline, 4:1 slope to clear
10 FT RD 12 FT FM RY END 125 FT L&R; 11 FT SIGN 0 FT FM 87 FT RT.
none

Airport Ownership and Management from official FAA records

Ownership: Publicly-owned
Owner: VILLAGE OF KELLEYS ISLAND
121 ADDISON ST. BOX 469
KELLEYS ISLAND, OH 43438
Phone (419) 746-2535
Manager: ARDEN COOPER
121 ADDISON ST. BOX 469
KELLEYS ISLAND, OH 43438
Phone (330) 495-0084

Airport Operational Statistics

Aircraft based on the field: 3
Single engine airplanes: 3
    
Aircraft operations: avg 70/day *
37% transient general aviation
34% air taxi
29% local general aviation
* for 12-month period ending 31 December 2015

Additional Remarks

DEER ON AND INVOF ARPT.

Instrument Procedures

There are no published instrument procedures at 89D.

Some nearby airports with instrument procedures:

KPCW - Erie-Ottawa International Airport (10 nm SW)
5A1 - Norwalk-Huron County Airport (22 nm S)
S24 - Sandusky County Regional Airport (24 nm SW)
14G - Fremont Airport (27 nm SW)
KLPR - Lorain County Regional Airport (28 nm SE)
 
Loc | Ops | Rwys | IFR | FBO | Links
Com | Nav | Svcs | Stats | Notes


 
Area around 89D (Kelleys Island Land Field Airport)
 
Road maps at: MapQuest Bing Google
 
Aerial photo
WARNING: Photo may not be current or correct
Aerial photo of 89D (Kelleys Island Land Field Airport)
Photo by David Newcomer
Photo taken 22-Sep-2017
from 2,000' AGL looking west.

Do you have a better or more recent aerial photo of Kelleys Island Land Field Airport that you would like to share? If so, please send us your photo.

 
Sectional chart

 
Airport distance calculator
Flying to Kelleys Island Land Field Airport? Find the distance to fly.

From to 89D

Sunrise and sunset
Times for 17-Aug-2018
 Local
(UTC-4)
 Zulu
(UTC)
Morning civil twilight06:1310:13
Sunrise06:4210:42
Sunset20:2700:27
Evening civil twilight20:5700:57

Current date and time
Zulu (UTC)  18-Aug-2018 01:01:58
Local (UTC-4)  17-Aug-2018 21:01:58
 
METAR
KPCW 
10nm SW 
180055Z AUTO VRB03KT 9SM 21/20 A2991 RMK AO2 P0002
TAF
KCLE 
39nm E 
172055Z 1721/1824 25008KT P6SM VCTS OVC035CB FM180000 26006KT P6SM OVC025 FM181200 35004KT 3SM BR VCTS OVC025CB FM181500 02008KT P6SM BKN035
CYQG 
42nm N 
171937Z 1719/1818 21010KT 2SM +SHRA BR OVC020 TEMPO 1719/1720 6SM -SHRA BR OVC040 PROB30 1719/1720 1SM -SHRA BR FM172000 25008KT P6SM BKN030 TEMPO 1720/1801 P6SM -SHRA BKN020 PROB30 1720/1801 2SM TSRA BR BKN020CB FM180100 34010KT P6SM SCT010 BKN150 FM180700 34008KT P6SM FEW010 BKN020 FM181500 03012KT P6SM SCT030 RMK NXT FCST BY 180000Z
KDTW 
48nm NW 
172100Z 1721/1824 VRB04KT P6SM VCSH SCT030 BKN045 TEMPO 1721/1724 2SM RA OVC025 FM180000 33006KT P6SM SCT015 BKN100 FM181500 01010KT P6SM SCT050
KMFD 
48nm S 
171733Z 1718/1818 22008KT P6SM VCTS OVC035CB TEMPO 1720/1723 1 1/2SM -TSRA OVC012CB FM172300 23006KT P6SM OVC025 FM180600 VRB03KT 4SM BR OVC015 FM181000 VRB03KT 2SM BR OVC008
NOTAMs
Click for the latest NOTAMs
NOTAMs are issued by the DoD/FAA and will open in a separate window not controlled by AirNav.

 

 
 

Would you like to see your business listed on this page?

 If your business provides an interesting product or service to pilots, flight crews, aircraft, or users of the Kelleys Island Land Field Airport, you should consider listing it here.  To start the listing process, click on the button below
 
Add a business
 

Other Pages about Kelleys Island Land Field Airport

Update a link
 
Copyright © AirNav, LLC. All rights reserved. Privacy Policy  Contact